CW2401 Weather Reports


Display with metric or nautical units.
time (UTC)temp
F
wind
direction
speed
MPH
gust
MPH
rain 1hr
in
rain 24hr
in
rain mn
in
humidity
%
barometer
mb
20260904212100 90 57 0.0 1.0 0.00 0.00 0.00 70 1013.9
20260904211901 90 57 0.0 1.0 0.00 0.00 0.00 69 1014.0
20260904211702 90 57 0.0 1.0 0.00 0.00 0.00 69 1014.0
20260904211501 90 57 0.0 1.0 0.00 0.00 0.00 69 1013.9
20260904211300 90 57 0.0 1.0 0.00 0.00 0.00 68 1013.9
20260904211101 90 57 0.0 2.0 0.00 0.00 0.00 68 1013.9
20260904210900 91 57 0.0 2.0 0.00 0.00 0.00 67 1013.8
20260904210700 91 57 0.0 2.0 0.00 0.00 0.00 67 1013.9
20260904210502 91 57 0.0 2.0 0.00 0.00 0.00 67 1013.9
20260904210301 91 57 0.0 2.0 0.00 0.00 0.00 66 1013.9
20260904205702 92 58 0.0 1.0 0.00 0.00 0.00 66 1013.5
20260904205501 92 58 0.0 1.0 0.00 0.00 0.00 65 1013.5
20260904205300 92 58 0.0 1.0 0.00 0.00 0.00 64 1013.5
20260904205100 92 58 0.0 2.0 0.00 0.00 0.00 65 1013.7
20260904204902 93 58 0.0 2.0 0.00 0.00 0.00 64 1013.6
20260904204701 93 58 1.0 4.0 0.00 0.00 0.00 64 1013.5
20260904203901 93 17 1.0 4.0 0.00 0.00 0.00 63 1013.5
20260904203700 93 35 1.0 2.0 0.00 0.00 0.00 63 1013.5
20260904203500 93 34 1.0 2.0 0.00 0.00 0.00 62 1013.6
20260904203300 93 165 1.0 2.0 0.00 0.00 0.00 65 1013.5
20260904203101 93 15 1.0 2.0 0.00 0.00 0.00 64 1013.6
20260904202901 93 15 1.0 2.0 0.00 0.00 0.00 63 1013.7
20260904202659 93 15 1.0 3.0 0.00 0.00 0.00 65 1013.7
20260904202459 93 15 1.0 3.0 0.00 0.00 0.00 66 1013.7
20260904202058 93 15 1.0 3.0 0.00 0.00 0.00 64 1013.7
20260904201856 93 15 1.0 3.0 0.00 0.00 0.00 66 1013.7
20260904201654 93 15 1.0 3.0 0.00 0.00 0.00 66 1013.6
20260904201455 93 11 0.0 3.0 0.00 0.00 0.00 64 1013.6
20260904201252 94 11 0.0 3.0 0.00 0.00 0.00 65 1013.7
20260904201052 94 11 0.0 3.0 0.00 0.00 0.00 63 1013.8
20260904200853 94 350 1.0 3.0 0.00 0.00 0.00 64 1013.9
20260904200651 94 350 0.0 3.0 0.00 0.00 0.00 59 1014.0
20260904200451 94 344 0.0 3.0 0.00 0.00 0.00 63 1014.0
20260904200250 94 344 1.0 3.0 0.00 0.00 0.00 63 1014.1
20260904200048 94 38 1.0 5.0 0.00 0.00 0.00 58 1014.2
20260904195646 94 39 1.0 5.0 0.00 0.00 0.00 64 1014.2
20260904195447 94 40 1.0 5.0 0.00 0.00 0.00 66 1014.3
20260904195247 94 40 0.0 5.0 0.00 0.00 0.00 58 1014.3
20260904195045 94 69 0.0 3.0 0.00 0.00 0.00 60 1014.2
20260904194843 94 119 0.0 2.0 0.00 0.00 0.00 65 1014.3
20260904194641 94 118 0.0 2.0 0.00 0.00 0.00 56 1014.3
20260904194439 94 117 1.0 2.0 0.00 0.00 0.00 60 1014.5
20260904194240 94 117 1.0 2.0 0.00 0.00 0.00 58 1014.6
20260904193836 94 139 1.0 2.0 0.00 0.00 0.00 56 1014.7
20260904193636 94 142 1.0 2.0 0.00 0.00 0.00 63 1014.8
20260904193434 94 142 1.0 2.0 0.00 0.00 0.00 58 1014.8
20260904193234 94 142 1.0 3.0 0.00 0.00 0.00 63 1014.8
20260904193033 94 80 1.0 3.0 0.00 0.00 0.00 62 1014.8
20260904192830 94 66 1.0 3.0 0.00 0.00 0.00 61 1014.9
20260904192629 94 65 1.0 3.0 0.00 0.00 0.00 59 1014.8
20260904192226 94 91 1.0 3.0 0.00 0.00 0.00 57 1014.7
20260904192025 94 91 1.0 3.0 0.00 0.00 0.00 54 1014.6
20260904191822 94 252 1.0 3.0 0.00 0.00 0.00 54 1014.7
20260904191620 94 90 1.0 2.0 0.00 0.00 0.00 56 1014.6
20260904191420 94 89 1.0 2.0 0.00 0.00 0.00 59 1014.5
20260904191018 94 89 1.0 3.0 0.00 0.00 0.00 63 1014.6
20260904190818 94 88 1.0 3.0 0.00 0.00 0.00 61 1014.7
20260904190618 94 86 1.0 5.0 0.00 0.00 0.00 57 1014.8
20260904190219 94 86 1.0 5.0 0.00 0.00 0.00 55 1015.0
20260904190018 94 86 1.0 5.0 0.00 0.00 0.00 60 1015.0
20260904185818 94 85 1.0 5.0 0.00 0.00 0.00 58 1015.1
20260904185416 94 75 1.0 3.0 0.00 0.00 0.00 62 1015.2
20260904185214 94 65 1.0 3.0 0.00 0.00 0.00 63 1015.2
20260904185015 94 64 1.0 5.0 0.00 0.00 0.00 61 1015.2
20260904184814 94 64 1.0 5.0 0.00 0.00 0.00 61 1015.3
20260904184614 94 65 1.0 5.0 0.00 0.00 0.00 61 1015.4
20260904184413 94 64 1.0 5.0 0.00 0.00 0.00 61 1015.4
20260904184013 94 98 1.0 5.0 0.00 0.00 0.00 62 1015.4
20260904183812 94 159 1.0 5.0 0.00 0.00 0.00 62 1015.4
20260904183610 94 110 1.0 5.0 0.00 0.00 0.00 65 1015.5
20260904183412 94 107 1.0 5.0 0.00 0.00 0.00 63 1015.5
20260904183209 94 132 1.0 5.0 0.00 0.00 0.00 62 1015.6
20260904183009 94 92 1.0 5.0 0.00 0.00 0.00 63 1015.6
20260904182807 93 94 1.0 3.0 0.00 0.00 0.00 64 1015.6
20260904182607 94 94 1.0 3.0 0.00 0.00 0.00 64 1015.6
20260904182408 93 99 1.0 3.0 0.00 0.00 0.00 63 1015.7
20260904182207 94 281 1.0 3.0 0.00 0.00 0.00 63 1015.7
20260904182004 94 281 1.0 3.0 0.00 0.00 0.00 63 1015.7
20260904181604 93 281 0.0 3.0 0.00 0.00 0.00 63 1015.7
20260904181403 93 183 0.0 2.0 0.00 0.00 0.00 63 1015.8
20260904181201 93 56 0.0 1.0 0.00 0.00 0.00 63 1015.9
20260904181003 93 57 0.0 2.0 0.00 0.00 0.00 63 1015.8
20260904180758 93 57 0.0 3.0 0.00 0.00 0.00 61 1015.8
20260904180558 93 53 1.0 3.0 0.00 0.00 0.00 64 1015.8
20260904180358 93 53 1.0 3.0 0.00 0.00 0.00 65 1015.9
20260904180158 93 53 1.0 3.0 0.00 0.00 0.00 65 1015.9
20260904175956 93 53 1.0 3.0 0.00 0.00 0.00 65 1016.1
20260904175754 93 55 1.0 3.0 0.00 0.00 0.00 66 1016.1
20260904175553 93 62 1.0 3.0 0.00 0.00 0.00 65 1016.1
20260904175351 93 123 1.0 3.0 0.00 0.00 0.00 64 1016.1
20260904175148 93 124 1.0 3.0 0.00 0.00 0.00 64 1016.1
20260904174949 93 124 2.0 4.0 0.00 0.00 0.00 63 1016.2
20260904174548 93 113 2.0 5.0 0.00 0.00 0.00 64 1016.2
20260904174348 93 355 2.0 5.0 0.00 0.00 0.00 65 1016.2
20260904174151 93 355 2.0 5.0 0.00 0.00 0.00 63 1016.2
20260904173949 93 5 2.0 5.0 0.00 0.00 0.00 64 1016.2
20260904173747 93 40 1.0 5.0 0.00 0.00 0.00 66 1016.3
20260904173544 93 41 1.0 5.0 0.00 0.00 0.00 65 1016.3
20260904173144 93 37 1.0 5.0 0.00 0.00 0.00 65 1016.3
20260904172947 92 5 1.0 5.0 0.00 0.00 0.00 65 1016.4
20260904172745 92 53 1.0 4.0 0.00 0.00 0.00 65 1016.4
20260904172543 92 53 1.0 4.0 0.00 0.00 0.00 66 1016.3
20260904172342 92 69 1.0 4.0 0.00 0.00 0.00 65 1016.3
20260904172143 92 69 1.0 4.0 0.00 0.00 0.00 66 1016.3
20260904171943 92 247 1.0 4.0 0.00 0.00 0.00 65 1016.4
20260904171741 92 344 1.0 5.0 0.00 0.00 0.00 65 1016.3
20260904171338 92 324 1.0 5.0 0.00 0.00 0.00 64 1016.4
20260904171138 92 324 1.0 5.0 0.00 0.00 0.00 67 1016.3
20260904170938 92 324 1.0 5.0 0.00 0.00 0.00 65 1016.3
20260904170737 92 90 0.0 2.0 0.00 0.00 0.00 66 1016.4
20260904170534 92 90 1.0 3.0 0.00 0.00 0.00 65 1016.4
20260904170333 92 90 1.0 3.0 0.00 0.00 0.00 65 1016.4
20260904170133 92 88 1.0 3.0 0.00 0.00 0.00 66 1016.4
20260904165933 92 88 1.0 3.0 0.00 0.00 0.00 65 1016.4
20260904165731 92 88 1.0 3.0 0.00 0.00 0.00 65 1016.4
20260904165530 92 88 1.0 3.0 0.00 0.00 0.00 65 1016.5
20260904165330 92 85 1.0 3.0 0.00 0.00 0.00 64 1016.5
20260904164727 91 88 1.0 3.0 0.00 0.00 0.00 68 1016.7
20260904164327 91 88 1.0 2.0 0.00 0.00 0.00 66 1016.7
20260904164127 91 88 1.0 2.0 0.00 0.00 0.00 65 1016.8
20260904163926 91 88 1.0 2.0 0.00 0.00 0.00 66 1016.9
20260904163523 91 88 1.0 2.0 0.00 0.00 0.00 67 1016.9
20260904163323 91 88 1.0 2.0 0.00 0.00 0.00 67 1016.9
20260904163122 91 88 1.0 2.0 0.00 0.00 0.00 67 1016.9
20260904162920 91 5 1.0 2.0 0.00 0.00 0.00 70 1017.0
20260904162720 91 5 1.0 2.0 0.00 0.00 0.00 70 1017.0
20260904162520 91 190 1.0 2.0 0.00 0.00 0.00 70 1017.0
20260904162119 90 194 1.0 2.0 0.00 0.00 0.00 69 1017.0
20260904161918 91 194 1.0 2.0 0.00 0.00 0.00 70 1017.0
20260904161518 90 196 1.0 3.0 0.00 0.00 0.00 69 1017.1
20260904161318 90 232 1.0 3.0 0.00 0.00 0.00 69 1017.1
20260904161118 90 237 1.0 3.0 0.00 0.00 0.00 69 1017.1
20260904160918 90 240 1.0 3.0 0.00 0.00 0.00 68 1017.2
20260904160517 90 308 1.0 4.0 0.00 0.00 0.00 70 1017.3
20260904160317 90 308 1.0 4.0 0.00 0.00 0.00 70 1017.2
20260904160116 90 309 1.0 4.0 0.00 0.00 0.00 70 1017.3
20260904155922 90 219 1.0 4.0 0.00 0.00 0.00 70 1017.3
20260904155716 89 349 1.0 4.0 0.00 0.00 0.00 70 1017.2
20260904155316 89 38 1.0 3.0 0.00 0.00 0.00 73 1017.3
20260904155114 89 38 1.0 3.0 0.00 0.00 0.00 70 1017.3
20260904154714 89 38 1.0 3.0 0.00 0.00 0.00 70 1017.4
20260904154512 89 109 1.0 3.0 0.00 0.00 0.00 69 1017.4
20260904154312 89 110 1.0 3.0 0.00 0.00 0.00 71 1017.4
20260904154113 89 109 1.0 3.0 0.00 0.00 0.00 71 1017.5
20260904153915 89 109 1.0 3.0 0.00 0.00 0.00 71 1017.4
20260904153714 89 113 1.0 2.0 0.00 0.00 0.00 71 1017.5
20260904153512 89 113 1.0 2.0 0.00 0.00 0.00 71 1017.4
20260904153314 89 122 1.0 2.0 0.00 0.00 0.00 71 1017.4
20260904153112 89 107 1.0 4.0 0.00 0.00 0.00 71 1017.5
20260904152912 89 107 1.0 4.0 0.00 0.00 0.00 70 1017.5
20260904152712 89 107 1.0 4.0 0.00 0.00 0.00 71 1017.5
20260904152512 89 314 1.0 4.0 0.00 0.00 0.00 71 1017.5
20260904152311 88 314 1.0 5.0 0.00 0.00 0.00 70 1017.5
20260904152110 88 59 1.0 5.0 0.00 0.00 0.00 70 1017.5
20260904151912 88 351 1.0 5.0 0.00 0.00 0.00 72 1017.5
20260904151710 88 350 1.0 5.0 0.00 0.00 0.00 72 1017.5
20260904151510 88 351 1.0 5.0 0.00 0.00 0.00 71 1017.5
20260904150912 88 45 2.0 4.0 0.00 0.00 0.00 72 1017.4
20260904150708 88 46 2.0 4.0 0.00 0.00 0.00 71 1017.4
20260904150509 88 23 2.0 4.0 0.00 0.00 0.00 73 1017.4
20260904150110 87 24 1.0 3.0 0.00 0.00 0.00 73 1017.4
20260904145907 87 342 1.0 4.0 0.00 0.00 0.00 73 1017.4
20260904145705 87 19 1.0 4.0 0.00 0.00 0.00 74 1017.4
20260904145503 87 9 1.0 4.0 0.00 0.00 0.00 73 1017.4
20260904145306 87 9 1.0 4.0 0.00 0.00 0.00 74 1017.5
20260904145105 87 9 1.0 4.0 0.00 0.00 0.00 74 1017.5
20260904144902 87 55 1.0 4.0 0.00 0.00 0.00 74 1017.5
20260904144301 87 329 1.0 4.0 0.00 0.00 0.00 75 1017.6
20260904144058 87 329 1.0 4.0 0.00 0.00 0.00 76 1017.6
20260904143857 87 127 1.0 3.0 0.00 0.00 0.00 75 1017.6
20260904143658 87 154 0.0 2.0 0.00 0.00 0.00 76 1017.5
20260904143456 86 90 0.0 2.0 0.00 0.00 0.00 75 1017.6
20260904143258 86 90 0.0 2.0 0.00 0.00 0.00 75 1017.6
20260904143057 86 90 0.0 2.0 0.00 0.00 0.00 75 1017.5
20260904142858 86 90 0.0 2.0 0.00 0.00 0.00 75 1017.5
20260904142658 86 38 0.0 2.0 0.00 0.00 0.00 75 1017.5
20260904142457 86 38 0.0 2.0 0.00 0.00 0.00 76 1017.5
20260904142256 86 38 1.0 3.0 0.00 0.00 0.00 76 1017.5
20260904142056 86 38 1.0 3.0 0.00 0.00 0.00 76 1017.5
20260904141653 86 38 1.0 3.0 0.00 0.00 0.00 76 1017.5
20260904141452 86 38 1.0 3.0 0.00 0.00 0.00 77 1017.5
20260904141251 86 38 1.0 3.0 0.00 0.00 0.00 77 1017.5
20260904141047 85 38 1.0 3.0 0.00 0.00 0.00 76 1017.5
20260904140643 85 162 1.0 3.0 0.00 0.00 0.00 76 1017.4
20260904140443 85 162 1.0 3.0 0.00 0.00 0.00 77 1017.4
20260904140243 85 186 1.0 3.0 0.00 0.00 0.00 77 1017.4
20260904140043 84 257 1.0 3.0 0.00 0.00 0.00 78 1017.4
20260904135641 84 258 1.0 3.0 0.00 0.00 0.00 79 1017.5
20260904135239 83 185 1.0 4.0 0.00 0.00 0.00 80 1017.4
20260904135037 83 182 1.0 4.0 0.00 0.00 0.00 80 1017.4
20260904134835 83 181 1.0 4.0 0.00 0.00 0.00 80 1017.4
20260904134635 82 181 1.0 4.0 0.00 0.00 0.00 81 1017.4
20260904134433 82 182 1.0 5.0 0.00 0.00 0.00 82 1017.5
20260904134231 82 31 1.0 5.0 0.00 0.00 0.00 83 1017.5
20260904134032 82 39 1.0 5.0 0.00 0.00 0.00 83 1017.5
20260904133831 82 38 0.0 5.0 0.00 0.00 0.00 83 1017.5
20260904133428 81 19 0.0 3.0 0.00 0.00 0.00 83 1017.5
20260904133229 81 19 0.0 3.0 0.00 0.00 0.00 83 1017.5
20260904133027 81 19 0.0 3.0 0.00 0.00 0.00 84 1017.5
20260904132828 80 223 0.0 3.0 0.00 0.00 0.00 84 1017.5
20260904132626 80 224 0.0 3.0 0.00 0.00 0.00 85 1017.5
20260904132424 80 242 0.0 2.0 0.00 0.00 0.00 85 1017.5
20260904132225 80 34 0.0 2.0 0.00 0.00 0.00 86 1017.5
20260904132024 80 34 0.0 2.0 0.00 0.00 0.00 87 1017.5
20260904131824 79 34 0.0 4.0 0.00 0.00 0.00 87 1017.4
20260904131620 79 34 1.0 5.0 0.00 0.00 0.00 87 1017.5
20260904131420 79 34 1.0 5.0 0.00 0.00 0.00 88 1017.5
20260904131021 78 327 1.0 5.0 0.00 0.00 0.00 89 1017.5
20260904130820 78 344 0.0 5.0 0.00 0.00 0.00 89 1017.6
20260904130418 78 136 0.0 3.0 0.00 0.00 0.00 89 1017.5
20260904130219 78 76 0.0 2.0 0.00 0.00 0.00 89 1017.5
20260904130016 78 76 1.0 2.0 0.00 0.00 0.00 90 1017.6
20260904125816 77 76 1.0 2.0 0.00 0.00 0.00 90 1017.6
20260904125616 77 76 1.0 2.0 0.00 0.00 0.00 90 1017.7
20260904125417 77 70 0.0 2.0 0.00 0.00 0.00 91 1017.6
20260904125216 77 70 0.0 2.0 0.00 0.00 0.00 91 1017.6
20260904124818 77 276 0.0 3.0 0.00 0.00 0.00 91 1017.8
20260904124617 77 276 0.0 3.0 0.00 0.00 0.00 92 1017.7
20260904124418 76 276 0.0 3.0 0.00 0.00 0.00 92 1017.7
20260904124215 76 276 0.0 3.0 0.00 0.00 0.00 92 1017.8
20260904124013 76 278 0.0 3.0 0.00 0.00 0.00 92 1017.7
20260904123812 76 38 0.0 1.0 0.00 0.00 0.00 92 1017.8
20260904123412 76 38 0.0 1.0 0.00 0.00 0.00 92 1017.7
20260904123213 76 38 0.0 3.0 0.00 0.00 0.00 92 1017.8
20260904123013 76 38 0.0 3.0 0.00 0.00 0.00 92 1017.7
20260904122811 76 38 0.0 3.0 0.00 0.00 0.00 92 1017.8
20260904122609 76 38 0.0 3.0 0.00 0.00 0.00 92 1017.8
20260904122408 76 38 0.0 3.0 0.00 0.00 0.00 92 1017.8
20260904122209 76 36 0.0 2.0 0.00 0.00 0.00 92 1017.8
20260904122007 75 36 0.0 1.0 0.00 0.00 0.00 92 1017.8
20260904121807 75 36 0.0 1.0 0.00 0.00 0.00 92 1017.8
20260904121607 75 36 0.0 1.0 0.00 0.00 0.00 92 1017.8
20260904121408 75 36 0.0 1.0 0.00 0.00 0.00 92 1017.8
20260904121209 75 36 0.0 1.0 0.00 0.00 0.00 92 1017.8
20260904121006 75 36 0.0 2.0 0.00 0.00 0.00 92 1017.8
20260904120404 75 36 0.0 2.0 0.00 0.00 0.00 92 1017.8
20260904120201 75 36 0.0 2.0 0.00 0.00 0.00 92 1017.7
20260904120002 75 27 0.0 1.0 0.00 0.00 0.00 92 1017.6
20260904115801 75 27 0.0 1.0 0.00 0.00 0.00 92 1017.7
20260904115601 75 27 0.0 1.0 0.00 0.00 0.00 92 1017.7
20260904115400 75 27 0.0 1.0 0.00 0.00 0.00 92 1017.7
20260904114959 75 27 0.0 0.0 0.00 0.00 0.00 92 1017.6
20260904114758 75 26 0.0 0.0 0.00 0.00 0.00 92 1017.6
20260904114556 75 26 0.0 0.0 0.00 0.00 0.00 92 1017.6
20260904114154 75 26 0.0 0.0 0.00 0.00 0.00 92 1017.6
20260904113954 75 27 0.0 0.0 0.00 0.00 0.00 92 1017.7
20260904113154 75 27 0.0 0.0 0.00 0.00 0.00 91 1017.7
20260904112954 75 26 0.0 0.0 0.00 0.00 0.00 91 1017.6
20260904112556 75 27 0.0 0.0 0.00 0.00 0.00 91 1017.6
20260904112353 75 27 0.0 0.0 0.00 0.00 0.00 91 1017.5
20260904112153 75 26 0.0 0.0 0.00 0.00 0.00 91 1017.5
20260904111955 75 27 0.0 0.0 0.00 0.00 0.00 91 1017.5
20260904111752 75 27 0.0 0.0 0.00 0.00 0.00 91 1017.5
20260904111553 75 26 0.0 0.0 0.00 0.00 0.00 91 1017.4
20260904111352 75 26 0.0 0.0 0.00 0.00 0.00 91 1017.5
20260904111151 75 26 0.0 0.0 0.00 0.00 0.00 91 1017.4
20260904110952 75 27 0.0 0.0 0.00 0.00 0.00 91 1017.4
20260904110752 75 27 0.0 0.0 0.00 0.00 0.00 91 1017.5
20260904110553 75 27 0.0 0.0 0.00 0.00 0.00 91 1017.5
20260904105952 75 26 0.0 0.0 0.00 0.00 0.00 91 1017.4
20260904105754 75 27 0.0 0.0 0.00 0.00 0.00 91 1017.4
20260904105551 75 27 0.0 0.0 0.00 0.00 0.00 91 1017.3
20260904105152 75 27 0.0 0.0 0.00 0.00 0.00 91 1017.3
20260904104951 75 27 0.0 0.0 0.00 0.00 0.00 91 1017.3
20260904104752 75 26 0.0 0.0 0.00 0.00 0.00 91 1017.2
20260904104553 75 27 0.0 0.0 0.00 0.00 0.00 91 1017.2
20260904104354 75 27 0.0 0.0 0.00 0.00 0.00 91 1017.2
20260904104150 75 26 0.0 0.0 0.00 0.00 0.00 91 1017.2
20260904103952 75 27 0.0 0.0 0.00 0.00 0.00 91 1017.3
20260904103751 75 26 0.0 0.0 0.00 0.00 0.00 91 1017.2
20260904103548 75 27 0.0 0.0 0.00 0.00 0.00 91 1017.3
20260904103148 75 27 0.0 0.0 0.00 0.00 0.00 91 1017.3
20260904102947 75 26 0.0 0.0 0.00 0.00 0.00 91 1017.3
20260904102546 75 27 0.0 0.0 0.00 0.00 0.00 91 1017.3
20260904102143 75 27 0.0 0.0 0.00 0.00 0.00 90 1017.4
20260904101543 75 27 0.0 0.0 0.00 0.00 0.00 90 1017.4
20260904101344 75 26 0.0 0.0 0.00 0.00 0.00 90 1017.4
20260904100944 75 26 0.0 0.0 0.00 0.00 0.00 90 1017.4
20260904100743 75 26 0.0 0.0 0.00 0.00 0.00 90 1017.4
20260904100344 75 26 0.0 0.0 0.00 0.00 0.00 90 1017.3
20260904100144 75 26 0.0 0.0 0.00 0.00 0.00 90 1017.3
20260904095945 75 26 0.0 0.0 0.00 0.00 0.00 90 1017.3
20260904095744 75 27 0.0 0.0 0.00 0.00 0.00 90 1017.4
20260904095545 75 26 0.0 0.0 0.00 0.00 0.00 90 1017.3
20260904095342 76 27 0.0 0.0 0.00 0.00 0.00 90 1017.4
20260904094741 76 26 0.0 0.0 0.00 0.00 0.00 90 1017.4
20260904094541 76 26 0.0 0.0 0.00 0.00 0.00 90 1017.3
20260904094341 76 27 0.0 0.0 0.00 0.00 0.00 90 1017.3
20260904094142 76 26 0.0 0.0 0.00 0.00 0.00 90 1017.2
20260904093942 76 26 0.0 0.0 0.00 0.00 0.00 89 1017.2
20260904093743 76 26 0.0 0.0 0.00 0.00 0.00 89 1017.3
20260904093543 76 26 0.0 0.0 0.00 0.00 0.00 89 1017.3
20260904093344 76 26 0.0 0.0 0.00 0.00 0.00 89 1017.3
20260904093141 76 27 0.0 0.0 0.00 0.00 0.00 89 1017.2
20260904092941 76 26 0.0 0.0 0.00 0.00 0.00 89 1017.2
20260904092742 76 27 0.0 0.0 0.00 0.00 0.00 89 1017.2
20260904092542 76 27 0.0 0.0 0.00 0.00 0.00 89 1017.2
20260904092341 76 26 0.0 0.0 0.00 0.00 0.00 89 1017.2
20260904092142 76 27 0.0 0.0 0.00 0.00 0.00 89 1017.2
20260904091541 76 26 0.0 0.0 0.00 0.00 0.00 88 1017.2
20260904091341 76 26 0.0 0.0 0.00 0.00 0.00 88 1017.1
20260904091141 76 26 0.0 0.0 0.00 0.00 0.00 88 1017.1
20260904090942 76 26 0.0 0.0 0.00 0.00 0.00 88 1017.1
20260904090743 76 26 0.0 0.0 0.00 0.00 0.00 88 1017.1
20260904090542 76 27 0.0 0.0 0.00 0.00 0.00 88 1017.1
20260904090142 77 27 0.0 0.0 0.00 0.00 0.00 88 1016.9
20260904085942 77 27 0.0 0.0 0.00 0.00 0.00 88 1016.9
20260904085741 77 26 0.0 0.0 0.00 0.00 0.00 88 1016.9
20260904085542 77 26 0.0 0.0 0.00 0.00 0.00 88 1016.8
20260904085343 77 26 0.0 0.0 0.00 0.00 0.00 88 1016.8
20260904085141 77 26 0.0 0.0 0.00 0.00 0.00 88 1016.8
20260904084942 77 26 0.0 0.0 0.00 0.00 0.00 88 1016.9
20260904084542 77 26 0.0 0.0 0.00 0.00 0.00 87 1016.9
20260904084341 77 26 0.0 0.0 0.00 0.00 0.00 87 1016.8
20260904084142 77 27 0.0 0.0 0.00 0.00 0.00 87 1016.8
20260904083942 77 26 0.0 0.0 0.00 0.00 0.00 87 1016.8
20260904083741 77 27 0.0 0.0 0.00 0.00 0.00 87 1016.7
20260904083543 77 27 0.0 0.0 0.00 0.00 0.00 87 1016.7
20260904082941 77 26 0.0 0.0 0.00 0.00 0.00 87 1016.6
20260904082542 77 26 0.0 0.0 0.00 0.00 0.00 87 1016.6
20260904082341 77 26 0.0 0.0 0.00 0.00 0.00 87 1016.6
20260904082142 77 26 0.0 0.0 0.00 0.00 0.00 87 1016.6
20260904081541 77 26 0.0 0.0 0.00 0.00 0.00 87 1016.7
20260904081343 77 27 0.0 0.0 0.00 0.00 0.00 87 1016.7
20260904081143 77 26 0.0 0.0 0.00 0.00 0.00 87 1016.7
20260904080941 77 26 0.0 1.0 0.00 0.00 0.00 86 1016.7
20260904080741 77 27 0.0 1.0 0.00 0.00 0.00 86 1016.7
20260904080541 77 26 0.0 1.0 0.00 0.00 0.00 86 1016.7
20260904080343 77 27 0.0 1.0 0.00 0.00 0.00 87 1016.7
20260904080142 77 27 0.0 1.0 0.00 0.00 0.00 86 1016.6
20260904075941 77 27 0.0 1.0 0.00 0.00 0.00 86 1016.6
20260904075741 77 27 0.0 1.0 0.00 0.00 0.00 86 1016.6
20260904075540 78 27 0.0 1.0 0.00 0.00 0.00 86 1016.6
20260904075139 78 27 0.0 1.0 0.00 0.00 0.00 86 1016.7
20260904074741 78 26 0.0 1.0 0.00 0.00 0.00 86 1016.6
20260904074540 78 26 0.0 1.0 0.00 0.00 0.00 86 1016.6
20260904074139 78 26 0.0 1.0 0.00 0.00 0.00 86 1016.6
20260904073940 78 27 0.0 1.0 0.00 0.00 0.00 86 1016.6
20260904073540 78 27 0.0 1.0 0.00 0.00 0.00 86 1016.7
20260904073139 78 26 0.0 1.0 0.00 0.00 0.00 86 1016.6
20260904072940 78 27 0.0 1.0 0.00 0.00 0.00 86 1016.6
20260904072740 78 26 0.0 1.0 0.00 0.00 0.00 86 1016.6
20260904072537 78 26 0.0 1.0 0.00 0.00 0.00 86 1016.6
20260904072337 78 26 0.0 1.0 0.00 0.00 0.00 87 1016.6
20260904072137 78 27 0.0 1.0 0.00 0.00 0.00 86 1016.6
20260904071938 78 27 0.0 1.0 0.00 0.00 0.00 86 1016.6
20260904071737 78 26 0.0 1.0 0.00 0.00 0.00 86 1016.6
20260904071537 78 27 0.0 1.0 0.00 0.00 0.00 86 1016.6
20260904071338 78 27 0.0 1.0 0.00 0.00 0.00 86 1016.7
20260904071138 78 27 0.0 1.0 0.00 0.00 0.00 86 1016.7
20260904070938 78 27 0.0 1.0 0.00 0.00 0.00 86 1016.7
20260904070737 78 27 0.0 1.0 0.00 0.00 0.00 86 1016.7
20260904070537 78 27 0.0 0.0 0.00 0.00 0.00 86 1016.7
20260904070335 78 27 0.0 0.0 0.00 0.00 0.00 86 1016.7
20260904070134 78 27 0.0 0.0 0.00 0.00 0.00 86 1016.8
20260904065933 78 26 0.0 0.0 0.00 0.00 0.00 86 1016.8
20260904065729 78 27 0.0 0.0 0.00 0.00 0.00 86 1016.8
20260904065529 78 27 0.0 0.0 0.00 0.00 0.00 85 1016.8
20260904065327 78 27 0.0 0.0 0.00 0.00 0.00 86 1016.9
20260904065124 78 26 0.0 0.0 0.00 0.00 0.00 86 1016.9
20260904064921 78 26 0.0 1.0 0.00 0.00 0.00 86 1016.9
20260904064723 78 27 0.0 1.0 0.00 0.00 0.00 86 1017.0
20260904064319 78 27 0.0 1.0 0.00 0.00 0.00 86 1017.0
20260904064117 78 26 0.0 1.0 0.00 0.00 0.00 86 1017.1
20260904063916 78 27 0.0 0.0 0.00 0.00 0.00 85 1017.1
20260904063717 79 26 0.0 0.0 0.00 0.00 0.00 86 1017.1
20260904063516 79 27 0.0 0.0 0.00 0.00 0.00 85 1017.2
20260904063313 79 26 0.0 0.0 0.00 0.00 0.00 86 1017.2
20260904063114 79 27 0.0 0.0 0.00 0.00 0.00 86 1017.2
20260904062913 79 27 0.0 0.0 0.00 0.00 0.00 85 1017.3
20260904062713 79 27 0.0 0.0 0.00 0.00 0.00 85 1017.3
20260904062514 79 27 0.0 0.0 0.00 0.00 0.00 85 1017.4
20260904062314 79 27 0.0 0.0 0.00 0.00 0.00 85 1017.5
20260904062111 79 26 0.0 0.0 0.00 0.00 0.00 85 1017.4
20260904061911 79 26 0.0 0.0 0.00 0.00 0.00 85 1017.5
20260904061712 79 26 0.0 0.0 0.00 0.00 0.00 85 1017.4
20260904061511 79 27 0.0 0.0 0.00 0.00 0.00 85 1017.5
20260904061311 79 27 0.0 0.0 0.00 0.00 0.00 85 1017.5
20260904061110 79 27 0.0 0.0 0.00 0.00 0.00 85 1017.6
20260904060913 79 26 0.0 0.0 0.00 0.00 0.00 85 1017.6
20260904060712 79 27 0.0 0.0 0.00 0.00 0.00 85 1017.6
20260904060513 79 26 0.0 1.0 0.00 0.00 0.00 85 1017.6
20260904060312 79 27 0.0 1.0 0.00 0.00 0.00 84 1017.7
20260904055909 79 26 0.0 1.0 0.00 0.00 0.00 84 1017.8
20260904055707 79 26 0.0 1.0 0.00 0.00 0.00 84 1017.7
20260904055507 79 27 0.0 0.0 0.00 0.00 0.00 84 1017.8
20260904055107 80 27 0.0 0.0 0.00 0.00 0.00 84 1017.8
20260904054908 80 26 0.0 0.0 0.00 0.00 0.00 84 1017.9
20260904054708 80 26 0.0 0.0 0.00 0.00 0.00 84 1017.9
20260904054507 80 26 0.0 0.0 0.00 0.00 0.00 83 1017.8
20260904054307 80 26 0.0 0.0 0.00 0.00 0.00 84 1017.8
20260904054107 80 26 0.0 0.0 0.00 0.00 0.00 83 1018.0
20260904053904 80 26 0.0 0.0 0.00 0.00 0.00 84 1017.9
20260904053701 80 27 0.0 0.0 0.00 0.00 0.00 84 1018.0
20260904053501 80 26 0.0 0.0 0.00 0.00 0.00 84 1018.1
20260904053259 80 26 0.0 1.0 0.00 0.00 0.00 84 1018.1
20260904053100 80 27 0.0 1.0 0.00 0.00 0.00 83 1018.0
20260904052900 80 26 0.0 1.0 0.00 0.00 0.00 83 1018.0
20260904052659 80 26 0.0 1.0 0.00 0.00 0.00 83 1018.0
20260904052500 80 27 0.0 1.0 0.00 0.00 0.00 84 1018.1
20260904052300 80 26 0.0 0.0 0.00 0.00 0.00 84 1018.1
20260904052058 80 27 0.0 0.0 0.00 0.00 0.00 83 1018.0
20260904051857 80 26 0.0 0.0 0.00 0.00 0.00 83 1018.1
20260904051655 80 27 0.0 1.0 0.00 0.00 0.00 83 1018.1
20260904051053 80 27 0.0 1.0 0.00 0.00 0.00 84 1018.3
20260904050852 80 27 0.0 1.0 0.00 0.00 0.00 84 1018.2
20260904050651 80 27 0.0 1.0 0.00 0.00 0.00 84 1018.2
20260904050248 80 26 0.0 0.0 0.00 0.00 0.00 84 1018.2
20260904050047 80 27 0.0 0.0 0.00 0.00 0.00 85 1018.2
20260904045847 80 26 0.0 1.0 0.00 0.00 0.00 84 1018.2
20260904045645 80 27 0.0 1.0 0.00 0.00 0.00 84 1018.2
20260904045445 80 26 0.0 1.0 0.00 0.00 0.00 85 1018.2
20260904045245 80 26 0.0 1.0 0.00 0.00 0.00 85 1018.2
20260904045045 80 26 0.0 1.0 0.00 0.00 0.00 84 1018.1
20260904044846 80 26 0.0 1.0 0.00 0.00 0.00 84 1018.1
20260904044646 80 26 0.0 1.0 0.00 0.00 0.00 84 1018.1
20260904044445 80 27 0.0 1.0 0.00 0.00 0.00 85 1018.1
20260904044245 80 27 0.0 2.0 0.00 0.00 0.00 84 1018.1
20260904044043 80 27 0.0 2.0 0.00 0.00 0.00 85 1018.1
20260904043843 80 27 0.0 2.0 0.00 0.00 0.00 86 1018.1
20260904043644 80 26 0.0 2.0 0.00 0.00 0.00 86 1018.1
20260904043443 80 26 0.0 2.0 0.00 0.00 0.00 85 1018.0
20260904043245 80 28 0.0 1.0 0.00 0.00 0.00 86 1018.1
20260904043042 80 28 0.0 1.0 0.00 0.00 0.00 85 1018.1
20260904042842 80 28 0.0 1.0 0.00 0.00 0.00 86 1018.1
20260904042641 80 28 0.0 1.0 0.00 0.00 0.00 85 1018.0
20260904042441 80 28 0.0 1.0 0.00 0.00 0.00 86 1018.0
20260904042239 80 28 0.0 1.0 0.00 0.00 0.00 86 1017.9
20260904042038 80 28 0.0 2.0 0.00 0.00 0.00 86 1017.9
20260904041836 79 28 0.0 2.0 0.00 0.00 0.00 87 1017.9
20260904041633 79 28 0.0 2.0 0.00 0.00 0.00 87 1017.8
20260904041432 79 28 0.0 2.0 0.00 0.00 0.00 86 1017.8
20260904040828 79 28 0.0 3.0 0.00 0.00 0.00 87 1017.8
20260904040625 79 28 0.0 3.0 0.00 0.00 0.00 88 1017.7
20260904040425 79 28 0.0 3.0 0.00 0.00 0.00 87 1017.7
20260904040224 79 67 0.0 3.0 0.00 0.00 0.00 87 1017.7
20260904040022 79 67 0.0 4.0 0.00 0.00 0.00 88 1017.7
20260904035822 79 67 0.0 4.0 0.00 0.00 0.00 88 1017.8
20260904035421 79 67 0.0 4.0 0.00 0.00 0.00 88 1017.8
20260904035221 79 60 0.0 4.0 0.00 0.00 0.00 88 1017.8
20260904035022 79 336 0.0 1.0 0.00 0.00 0.00 88 1017.8
20260904034821 79 336 0.0 1.0 0.00 0.00 0.00 88 1017.7
20260904034220 79 336 0.0 1.0 0.00 0.00 0.00 88 1017.7
20260904034018 79 336 0.0 1.0 0.00 0.00 0.00 88 1017.7
20260904033816 79 336 0.0 0.0 0.00 0.00 0.00 88 1017.8
20260904033614 79 336 0.0 0.0 0.00 0.00 0.00 88 1017.8
20260904033210 79 336 0.0 0.0 0.00 0.00 0.00 89 1017.8
20260904033012 79 336 0.0 0.0 0.00 0.00 0.00 89 1017.8
20260904032811 79 336 0.0 0.0 0.00 0.00 0.00 89 1017.8
20260904032409 79 336 0.0 1.0 0.00 0.00 0.00 89 1017.8
20260904032206 79 336 0.0 1.0 0.00 0.00 0.00 89 1017.8
20260904032006 80 336 0.0 1.0 0.00 0.00 0.00 89 1017.8
20260904031805 80 336 0.0 1.0 0.00 0.00 0.00 89 1017.8
20260904031605 80 336 0.0 0.0 0.00 0.00 0.00 88 1017.8
20260904031403 80 336 0.0 0.0 0.00 0.00 0.00 88 1017.8
20260904031001 80 336 0.0 0.0 0.00 0.00 0.00 88 1017.8
20260904030802 80 336 0.0 0.0 0.00 0.00 0.00 88 1017.8
20260904030359 80 336 0.0 0.0 0.00 0.00 0.00 88 1017.9
20260904030158 80 336 0.0 0.0 0.00 0.00 0.00 88 1017.9
20260904025756 80 336 0.0 0.0 0.00 0.00 0.00 88 1017.9
20260904024949 80 336 0.0 0.0 0.00 0.00 0.00 88 1018.0
20260904024750 80 336 0.0 0.0 0.00 0.00 0.00 87 1018.0
20260904024551 80 336 0.0 0.0 0.00 0.00 0.00 87 1018.0
20260904023744 80 336 0.0 0.0 0.00 0.00 0.00 87 1018.1
20260904023542 80 336 0.0 0.0 0.00 0.00 0.00 87 1018.1
20260904023342 80 336 0.0 0.0 0.00 0.00 0.00 87 1018.1
20260904023144 81 336 0.0 0.0 0.00 0.00 0.00 87 1018.1
20260904022943 81 336 0.0 0.0 0.00 0.00 0.00 87 1018.2
20260904022742 81 336 0.0 0.0 0.00 0.00 0.00 87 1018.2
20260904022540 81 336 0.0 0.0 0.00 0.00 0.00 87 1018.2
20260904022138 81 336 0.0 0.0 0.00 0.00 0.00 87 1018.1
20260904021935 81 336 0.0 0.0 0.00 0.00 0.00 86 1018.1
20260904021734 81 336 0.0 0.0 0.00 0.00 0.00 86 1018.1
20260904021531 81 336 0.0 0.0 0.00 0.00 0.00 86 1018.1
20260904021128 81 336 0.0 0.0 0.00 0.00 0.00 86 1018.1
20260904020925 81 336 0.0 0.0 0.00 0.00 0.00 86 1018.0
20260904020322 81 336 0.0 0.0 0.00 0.00 0.00 85 1018.0
20260904020121 81 336 0.0 0.0 0.00 0.00 0.00 85 1018.0
20260904015919 81 336 0.0 0.0 0.00 0.00 0.00 85 1018.0
20260904015719 81 336 0.0 0.0 0.00 0.00 0.00 85 1018.0
20260904015516 81 336 0.0 0.0 0.00 0.00 0.00 85 1018.0
20260904015314 81 336 0.0 0.0 0.00 0.00 0.00 85 1018.0
20260904015112 81 336 0.0 0.0 0.00 0.00 0.00 85 1018.0
20260904014912 81 336 0.0 0.0 0.00 0.00 0.00 85 1017.9
20260904014712 81 336 0.0 0.0 0.00 0.00 0.00 85 1017.9
20260904014511 81 336 0.0 0.0 0.00 0.00 0.00 84 1017.9
20260904014110 81 336 0.0 0.0 0.00 0.00 0.00 85 1017.9
20260904013909 81 336 0.0 0.0 0.00 0.00 0.00 85 1017.9
20260904013709 81 336 0.0 0.0 0.00 0.00 0.00 85 1017.8
20260904013511 81 336 0.0 0.0 0.00 0.00 0.00 85 1017.8
20260904013311 81 336 0.0 0.0 0.00 0.00 0.00 84 1017.7
20260904013109 81 336 0.0 0.0 0.00 0.00 0.00 84 1017.7
20260904012909 82 336 0.0 0.0 0.00 0.00 0.00 84 1017.7
20260904012709 82 336 0.0 0.0 0.00 0.00 0.00 84 1017.7
20260904012510 82 336 0.0 0.0 0.00 0.00 0.00 84 1017.7
20260904012307 82 336 0.0 0.0 0.00 0.00 0.00 84 1017.6
20260904012106 82 336 0.0 0.0 0.00 0.00 0.00 83 1017.6
20260904011904 82 336 0.0 0.0 0.00 0.00 0.00 83 1017.6
20260904011703 82 336 0.0 0.0 0.00 0.00 0.00 83 1017.6
20260904011303 82 336 0.0 0.0 0.00 0.00 0.00 83 1017.5
20260904011103 82 336 0.0 0.0 0.00 0.00 0.00 83 1017.4
20260904010904 82 336 0.0 0.0 0.00 0.00 0.00 83 1017.4
20260904010459 82 336 0.0 0.0 0.00 0.00 0.00 83 1017.3
20260904010257 82 336 0.0 0.0 0.00 0.00 0.00 83 1017.2
20260904010057 82 336 0.0 0.0 0.00 0.00 0.00 83 1017.1
20260904005855 82 336 0.0 0.0 0.00 0.00 0.00 83 1017.1
20260904005654 82 336 0.0 0.0 0.00 0.00 0.00 83 1017.1
20260904005451 82 336 0.0 0.0 0.00 0.00 0.00 82 1017.1
20260904005250 82 336 0.0 0.0 0.00 0.00 0.00 82 1017.1
20260904004848 82 336 0.0 0.0 0.00 0.00 0.00 82 1017.1
20260904004645 82 336 0.0 0.0 0.00 0.00 0.00 82 1017.0
20260904004242 83 336 0.0 0.0 0.00 0.00 0.00 82 1016.9
20260904004040 83 336 0.0 0.0 0.00 0.00 0.00 81 1016.9
20260904003435 83 336 0.0 0.0 0.00 0.00 0.00 81 1016.8
20260904003235 83 336 0.0 0.0 0.00 0.00 0.00 81 1016.8
20260904003033 83 336 0.0 0.0 0.00 0.00 0.00 81 1016.8
20260904002833 83 336 0.0 0.0 0.00 0.00 0.00 80 1016.7
20260904002633 83 336 0.0 0.0 0.00 0.00 0.00 80 1016.7
20260904002433 83 336 0.0 0.0 0.00 0.00 0.00 80 1016.6
20260904002030 83 336 0.0 0.0 0.00 0.00 0.00 80 1016.5
20260904001831 83 336 0.0 0.0 0.00 0.00 0.00 80 1016.5
20260904001630 84 336 0.0 0.0 0.00 0.00 0.00 79 1016.5
20260904001428 84 336 0.0 0.0 0.00 0.00 0.00 79 1016.5
20260904001225 84 336 0.0 0.0 0.00 0.00 0.00 79 1016.5
20260904001023 84 336 0.0 0.0 0.00 0.00 0.00 79 1016.5
20260904000823 84 336 0.0 0.0 0.00 0.00 0.00 79 1016.5
20260904000623 84 336 0.0 0.0 0.00 0.00 0.00 79 1016.5
20260904000425 84 336 0.0 0.0 0.00 0.00 0.00 78 1016.5
20260904000221 84 336 0.0 0.0 0.00 0.00 0.00 78 1016.4
20260904000019 85 336 0.0 0.0 0.00 0.00 0.00 78 1016.4
20260903235818 85 336 0.0 0.0 0.00 0.00 0.00 78 1016.4
20260903235615 85 336 0.0 0.0 0.00 0.00 0.00 78 1016.3
20260903235415 85 336 0.0 0.0 0.00 0.00 0.00 78 1016.3
20260903235215 85 336 0.0 0.0 0.00 0.00 0.00 78 1016.2
20260903234815 85 336 0.0 0.0 0.00 0.00 0.00 77 1016.2
20260903234611 85 336 0.0 0.0 0.00 0.00 0.00 78 1016.2
20260903234411 85 336 0.0 0.0 0.00 0.00 0.00 77 1016.2
20260903234210 85 336 0.0 0.0 0.00 0.00 0.00 77 1015.9
20260903234009 85 336 0.0 0.0 0.00 0.00 0.00 77 1015.9
20260903233809 86 336 0.0 0.0 0.00 0.00 0.00 76 1015.9
20260903233609 86 336 0.0 0.0 0.00 0.00 0.00 76 1016.1
20260903233410 86 336 0.0 0.0 0.00 0.00 0.00 76 1016.1
20260903233208 86 336 0.0 0.0 0.00 0.00 0.00 76 1015.9
20260903233007 86 336 0.0 0.0 0.00 0.00 0.00 76 1015.9
20260903232607 86 336 0.0 0.0 0.00 0.00 0.00 75 1016.1
20260903232207 86 336 0.0 0.0 0.00 0.00 0.00 75 1015.9
20260903232007 86 336 0.0 0.0 0.00 0.00 0.00 75 1015.9
20260903231807 86 336 0.0 0.0 0.00 0.00 0.00 74 1015.9
20260903231408 87 336 0.0 0.0 0.00 0.00 0.00 75 1016.1
20260903231209 87 336 0.0 0.0 0.00 0.00 0.00 75 1015.9
20260903230808 87 336 0.0 0.0 0.00 0.00 0.00 74 1016.1
20260903230608 87 336 0.0 0.0 0.00 0.00 0.00 74 1015.9
20260903230406 87 336 0.0 0.0 0.00 0.00 0.00 74 1016.1
20260903230204 87 336 0.0 0.0 0.00 0.00 0.00 74 1016.2
20260903230005 87 336 0.0 0.0 0.00 0.00 0.00 74 1016.2
20260903225803 87 336 0.0 0.0 0.00 0.00 0.00 73 1016.2
20260903225401 87 336 0.0 0.0 0.00 0.00 0.00 73 1015.9
20260903225001 88 336 0.0 0.0 0.00 0.00 0.00 73 1015.9
20260903224559 88 336 0.0 0.0 0.00 0.00 0.00 73 1015.9
20260903224400 88 336 0.0 0.0 0.00 0.00 0.00 73 1015.9
20260903223955 88 336 0.0 0.0 0.00 0.00 0.00 72 1015.9
20260903223755 88 336 0.0 0.0 0.00 0.00 0.00 72 1015.9
20260903223554 88 336 0.0 0.0 0.00 0.00 0.00 72 1015.9
20260903223354 88 336 0.0 0.0 0.00 0.00 0.00 72 1015.9
20260903222952 88 336 0.0 0.0 0.00 0.00 0.00 72 1015.9
20260903222747 88 336 0.0 0.0 0.00 0.00 0.00 72 1015.8
20260903222546 88 336 0.0 0.0 0.00 0.00 0.00 72 1015.9
20260903222344 88 336 0.0 0.0 0.00 0.00 0.00 72 1015.9
20260903222146 88 336 0.0 0.0 0.00 0.00 0.00 71 1015.8
20260903221944 89 336 0.0 0.0 0.00 0.00 0.00 71 1015.9
20260903221339 89 336 0.0 0.0 0.00 0.00 0.00 70 1015.9
20260903220938 89 336 0.0 0.0 0.00 0.00 0.00 70 1015.9
20260903220735 89 336 0.0 0.0 0.00 0.00 0.00 70 1016.1
20260903220533 89 336 0.0 0.0 0.00 0.00 0.00 70 1015.9
20260903220131 89 336 0.0 0.0 0.00 0.00 0.00 70 1016.1
20260903215929 89 336 0.0 0.0 0.00 0.00 0.00 70 1016.1
20260903215728 89 336 0.0 0.0 0.00 0.00 0.00 70 1016.1
20260903215530 89 336 0.0 0.0 0.00 0.00 0.00 70 1015.9
20260903215328 89 336 0.0 0.0 0.00 0.00 0.00 70 1015.9
20260903215125 89 336 0.0 0.0 0.00 0.00 0.00 70 1016.1
20260903214925 89 336 0.0 0.0 0.00 0.00 0.00 70 1016.1
20260903214723 90 336 0.0 0.0 0.00 0.00 0.00 69 1016.2
20260903214520 90 336 0.0 0.0 0.00 0.00 0.00 69 1016.2
20260903214320 90 336 0.0 0.0 0.00 0.00 0.00 69 1016.2
20260903214117 90 336 0.0 0.0 0.00 0.00 0.00 69 1016.2
20260903213917 90 336 0.0 0.0 0.00 0.00 0.00 69 1016.2
20260903213515 90 336 0.0 0.0 0.00 0.00 0.00 69 1016.2
20260903213315 90 336 0.0 0.0 0.00 0.00 0.00 69 1016.2
20260903213113 90 336 0.0 0.0 0.00 0.00 0.00 68 1016.2
20260903212913 90 336 0.0 0.0 0.00 0.00 0.00 68 1016.2
20260903212711 90 336 0.0 0.0 0.00 0.00 0.00 68 1016.2
20260903212512 90 336 0.0 0.0 0.00 0.00 0.00 68 1016.2
20260903212311 90 336 0.0 0.0 0.00 0.00 0.00 67 1016.2